Time,TemperatureF,DewpointF,PressureIn,WindDirection,WindDirectionDegrees,WindSpeedMPH,WindSpeedGustMPH,Humidity,HourlyPrecipIn,Conditions,Clouds,dailyrainin,SolarRadiationWatts/m^2,SoftwareType,DateUTC
2013-02-20 00:05:00,35.4,30.8,30.02,NNW,338,0.0,0.0,83,0.00,CLR,,0.00,0.0,WeatherDisplay:10.37,2013-02-20 08:05:00,
2013-02-20 00:10:00,35.1,30.4,30.02,NNW,338,0.0,0.0,83,0.00,CLR,,0.00,0.0,WeatherDisplay:10.37,2013-02-20 08:10:00,
2013-02-20 00:15:00,34.7,30.4,30.05,NNW,338,0.0,0.0,84,0.00,CLR,,0.00,0.0,WeatherDisplay:10.37,2013-02-20 08:15:00,
2013-02-20 00:20:00,34.5,30.2,30.05,NNW,338,0.0,0.0,84,0.00,CLR,,0.00,0.0,WeatherDisplay:10.37,2013-02-20 08:20:00,
2013-02-20 00:25:00,34.2,29.8,30.05,NNW,338,0.0,0.0,84,0.00,CLR,,0.00,0.0,WeatherDisplay:10.37,2013-02-20 08:25:00,
2013-02-20 00:30:00,34.0,29.7,30.05,NNW,338,0.0,0.0,84,0.00,CLR,,0.00,0.0,WeatherDisplay:10.37,2013-02-20 08:30:00,
2013-02-20 00:35:00,33.8,29.8,30.05,NNW,338,0.0,0.0,85,0.00,CLR,,0.00,0.0,WeatherDisplay:10.37,2013-02-20 08:35:00,
2013-02-20 00:40:00,33.4,29.7,30.05,NNW,338,0.0,0.0,86,0.00,CLR,,0.00,0.0,WeatherDisplay:10.37,2013-02-20 08:40:00,
2013-02-20 00:45:00,33.3,29.5,30.05,NNW,338,0.0,0.0,86,0.00,CLR,,0.00,0.0,WeatherDisplay:10.37,2013-02-20 08:45:00,
2013-02-20 00:50:00,33.1,29.6,30.05,NNW,338,0.0,0.0,87,0.00,CLR,,0.00,0.0,WeatherDisplay:10.37,2013-02-20 08:50:00,
2013-02-20 00:55:00,32.7,29.3,30.05,NNW,338,0.0,0.0,87,0.00,CLR,,0.00,0.0,WeatherDisplay:10.37,2013-02-20 08:55:00,
2013-02-20 01:00:00,32.5,29.1,30.05,NNW,338,0.0,0.0,87,0.00,CLR,,0.00,0.0,WeatherDisplay:10.37,2013-02-20 09:00:00,
2013-02-20 01:05:00,32.5,29.1,30.05,NNW,338,0.0,0.0,87,0.00,CLR,,0.00,0.0,WeatherDisplay:10.37,2013-02-20 09:05:00,
2013-02-20 01:10:00,32.5,29.4,30.05,NNW,338,0.0,0.0,88,0.00,CLR,,0.00,0.0,WeatherDisplay:10.37,2013-02-20 09:10:00,
2013-02-20 01:15:00,32.9,29.7,30.05,NNW,338,0.0,0.0,88,0.00,CLR,,0.00,0.0,WeatherDisplay:10.37,2013-02-20 09:15:00,
2013-02-20 01:20:00,33.3,30.1,30.05,NNW,338,0.0,0.0,88,0.00,CLR,,0.00,0.0,WeatherDisplay:10.37,2013-02-20 09:20:00,
2013-02-20 01:25:00,33.4,30.5,30.05,NNW,338,0.0,0.0,89,0.00,CLR,,0.00,0.0,WeatherDisplay:10.37,2013-02-20 09:25:00,
2013-02-20 01:30:00,33.8,30.9,30.08,NNW,338,0.0,0.0,89,0.00,CLR,,0.00,0.0,WeatherDisplay:10.37,2013-02-20 09:30:00,
2013-02-20 01:35:00,34.0,30.8,30.08,NNW,338,0.0,0.0,88,0.00,CLR,,0.00,0.0,WeatherDisplay:10.37,2013-02-20 09:35:00,
2013-02-20 01:40:00,34.0,30.8,30.08,NNW,338,0.0,0.0,88,0.00,CLR,,0.00,0.0,WeatherDisplay:10.37,2013-02-20 09:40:00,
2013-02-20 01:45:00,34.2,31.0,30.08,NNW,338,0.0,0.0,88,0.00,CLR,,0.00,0.0,WeatherDisplay:10.37,2013-02-20 09:45:00,
2013-02-20 01:50:00,34.2,31.0,30.08,NNW,338,0.0,0.0,88,0.00,CLR,,0.00,0.0,WeatherDisplay:10.37,2013-02-20 09:50:00,
2013-02-20 01:55:00,34.3,31.2,30.08,NNW,338,0.0,0.0,88,0.00,CLR,,0.00,0.0,WeatherDisplay:10.37,2013-02-20 09:55:00,
2013-02-20 02:01:00,34.3,31.2,30.08,NNW,338,0.0,0.0,88,0.00,CLR,,0.00,0.0,WeatherDisplay:10.37,2013-02-20 10:01:00,
2013-02-20 02:06:00,34.3,31.2,30.08,NNW,338,0.0,0.0,88,0.00,CLR,,0.00,0.0,WeatherDisplay:10.37,2013-02-20 10:06:00,
2013-02-20 02:11:00,34.5,31.6,30.08,NNW,338,0.0,0.0,89,0.00,CLR,,0.00,0.0,WeatherDisplay:10.37,2013-02-20 10:11:00,
2013-02-20 02:16:00,34.9,32.0,30.08,NNW,338,0.0,0.0,89,0.00,CLR,,0.00,0.0,WeatherDisplay:10.37,2013-02-20 10:16:00,
2013-02-20 02:21:00,35.1,32.1,30.08,NNW,338,0.0,0.0,89,0.00,CLR,,0.00,0.0,WeatherDisplay:10.37,2013-02-20 10:21:00,
2013-02-20 02:26:00,35.1,32.1,30.08,NNW,338,0.0,0.0,89,0.00,CLR,,0.00,0.0,WeatherDisplay:10.37,2013-02-20 10:26:00,
2013-02-20 02:31:00,35.2,32.3,30.08,NNW,338,0.0,0.0,89,0.00,CLR,,0.00,0.0,WeatherDisplay:10.37,2013-02-20 10:31:00,
2013-02-20 02:36:00,35.4,32.8,30.08,NNW,338,0.0,0.0,90,0.00,CLR,,0.00,0.0,WeatherDisplay:10.37,2013-02-20 10:36:00,
2013-02-20 02:41:00,35.6,32.7,30.08,NNW,338,0.0,0.0,89,0.00,CLR,,0.00,0.0,WeatherDisplay:10.37,2013-02-20 10:41:00,
2013-02-20 02:46:00,35.6,32.7,30.08,NNW,338,0.0,0.0,89,0.00,CLR,,0.00,0.0,WeatherDisplay:10.37,2013-02-20 10:46:00,
2013-02-20 02:51:00,35.8,32.9,30.08,NNW,338,0.0,0.0,89,0.00,CLR,,0.00,0.0,WeatherDisplay:10.37,2013-02-20 10:51:00,
2013-02-20 02:56:00,35.8,32.9,30.08,NNW,338,0.0,0.0,89,0.00,CLR,,0.00,0.0,WeatherDisplay:10.37,2013-02-20 10:56:00,
2013-02-20 03:01:00,36.0,33.0,30.08,NNW,338,0.0,0.0,89,0.00,CLR,,0.00,0.0,WeatherDisplay:10.37,2013-02-20 11:01:00,
2013-02-20 03:06:00,36.1,33.2,30.08,NNW,338,0.0,0.0,89,0.00,CLR,,0.00,0.0,WeatherDisplay:10.37,2013-02-20 11:06:00,
2013-02-20 03:11:00,36.3,33.7,30.08,NNW,338,0.0,0.0,90,0.00,CLR,,0.00,0.0,WeatherDisplay:10.37,2013-02-20 11:11:00,
2013-02-20 03:16:00,36.7,34.0,30.08,NNW,338,0.0,0.0,90,0.00,CLR,,0.00,0.0,WeatherDisplay:10.37,2013-02-20 11:16:00,
2013-02-20 03:21:00,36.9,34.5,30.08,NNW,338,0.0,0.0,91,0.00,CLR,,0.00,0.0,WeatherDisplay:10.37,2013-02-20 11:21:00,
2013-02-20 03:26:00,37.0,34.7,30.08,NNW,338,0.0,0.0,91,0.00,CLR,,0.00,0.0,WeatherDisplay:10.37,2013-02-20 11:26:00,
2013-02-20 03:31:00,37.4,34.7,30.08,NNW,338,0.0,0.0,90,0.00,CLR,,0.00,0.0,WeatherDisplay:10.37,2013-02-20 11:31:00,
2013-02-20 03:36:00,37.4,34.7,30.08,NNW,338,0.0,0.0,90,0.00,CLR,,0.00,0.0,WeatherDisplay:10.37,2013-02-20 11:36:00,
2013-02-20 03:41:00,37.6,34.9,30.08,NNW,338,0.0,0.0,90,0.00,CLR,,0.00,0.0,WeatherDisplay:10.37,2013-02-20 11:41:00,
2013-02-20 03:46:00,37.8,35.4,30.08,SSW,202,2.0,2.0,91,0.00,CLR,,0.00,0.0,WeatherDisplay:10.37,2013-02-20 11:46:00,
2013-02-20 03:51:00,37.9,35.5,30.08,SSW,202,1.6,0.0,91,0.00,CLR,,0.00,0.0,WeatherDisplay:10.37,2013-02-20 11:51:00,
2013-02-20 03:56:00,37.9,35.5,30.08,SSW,202,1.6,0.0,91,0.00,CLR,,0.00,0.0,WeatherDisplay:10.37,2013-02-20 11:56:00,
2013-02-20 04:01:00,37.9,35.3,30.08,WSW,248,0.0,0.0,90,0.00,CLR,,0.00,0.0,WeatherDisplay:10.37,2013-02-20 12:01:00,
2013-02-20 04:06:00,37.8,34.8,30.08,WSW,248,0.0,0.0,89,0.00,CLR,,0.00,0.0,WeatherDisplay:10.37,2013-02-20 12:06:00,
2013-02-20 04:11:00,37.8,34.8,30.08,WSW,248,0.0,0.0,89,0.00,CLR,,0.00,0.0,WeatherDisplay:10.37,2013-02-20 12:11:00,
2013-02-20 04:16:00,37.6,34.3,30.05,WSW,248,0.0,0.0,88,0.00,CLR,,0.00,0.0,WeatherDisplay:10.37,2013-02-20 12:16:00,
2013-02-20 04:21:00,37.2,34.0,30.05,WSW,248,0.0,0.0,88,0.00,CLR,,0.00,0.0,WeatherDisplay:10.37,2013-02-20 12:21:00,
2013-02-20 04:26:00,36.9,33.6,30.05,WSW,248,0.0,0.0,88,0.00,CLR,,0.00,0.0,WeatherDisplay:10.37,2013-02-20 12:26:00,
2013-02-20 04:31:00,36.5,33.3,30.08,WSW,248,0.0,0.0,88,0.00,CLR,,0.00,0.0,WeatherDisplay:10.37,2013-02-20 12:31:00,
2013-02-20 04:36:00,36.3,33.1,30.08,WSW,248,0.0,0.0,88,0.00,CLR,,0.00,0.0,WeatherDisplay:10.37,2013-02-20 12:36:00,
2013-02-20 04:41:00,36.0,32.8,30.08,WSW,248,0.0,0.0,88,0.00,CLR,,0.00,0.0,WeatherDisplay:10.37,2013-02-20 12:41:00,
2013-02-20 04:46:00,35.8,32.6,30.08,WSW,248,0.0,0.0,88,0.00,CLR,,0.00,0.0,WeatherDisplay:10.37,2013-02-20 12:46:00,
2013-02-20 04:51:00,35.4,32.5,30.08,WSW,248,0.0,0.0,89,0.00,CLR,,0.00,0.0,WeatherDisplay:10.37,2013-02-20 12:51:00,
2013-02-20 04:56:00,35.2,32.3,30.08,WSW,248,0.0,0.0,89,0.00,CLR,,0.00,0.0,WeatherDisplay:10.37,2013-02-20 12:56:00,
2013-02-20 05:01:00,35.1,32.1,30.08,WSW,248,0.0,0.0,89,0.00,CLR,,0.00,0.0,WeatherDisplay:10.37,2013-02-20 13:01:00,
2013-02-20 05:06:00,34.9,32.0,30.08,WSW,248,0.0,0.0,89,0.00,CLR,,0.00,0.0,WeatherDisplay:10.37,2013-02-20 13:06:00,
2013-02-20 05:11:00,34.9,32.0,30.08,WSW,248,0.0,0.0,89,0.00,CLR,,0.00,0.0,WeatherDisplay:10.37,2013-02-20 13:11:00,
2013-02-20 05:16:00,34.9,32.0,30.08,WSW,248,0.0,0.0,89,0.00,CLR,,0.00,0.0,WeatherDisplay:10.37,2013-02-20 13:16:00,
2013-02-20 05:21:00,34.9,32.2,30.08,WSW,248,0.0,0.0,90,0.00,CLR,,0.00,0.0,WeatherDisplay:10.37,2013-02-20 13:21:00,
2013-02-20 05:26:00,34.9,32.2,30.08,WSW,248,0.0,0.0,90,0.00,CLR,,0.00,0.0,WeatherDisplay:10.37,2013-02-20 13:26:00,
2013-02-20 05:31:00,35.1,32.7,30.11,WSW,248,0.0,0.0,91,0.00,CLR,,0.00,0.0,WeatherDisplay:10.37,2013-02-20 13:31:00,
2013-02-20 05:36:00,35.1,32.7,30.11,WSW,248,0.0,0.0,91,0.00,CLR,,0.00,0.0,WeatherDisplay:10.37,2013-02-20 13:36:00,
2013-02-20 05:41:00,35.2,32.9,30.11,SSW,202,0.0,0.0,91,0.00,CLR,,0.00,0.0,WeatherDisplay:10.37,2013-02-20 13:41:00,
2013-02-20 05:46:00,35.2,32.9,30.11,SSW,202,0.0,0.0,91,0.00,CLR,,0.00,0.0,WeatherDisplay:10.37,2013-02-20 13:46:00,
2013-02-20 05:51:00,35.2,32.9,30.11,SSW,202,0.0,0.0,91,0.00,CLR,,0.00,0.0,WeatherDisplay:10.37,2013-02-20 13:51:00,
2013-02-20 05:56:00,35.2,32.9,30.11,SSW,202,0.0,0.0,91,0.00,CLR,,0.00,0.0,WeatherDisplay:10.37,2013-02-20 13:56:00,
2013-02-20 06:01:00,35.1,32.7,30.11,SSW,202,0.0,0.0,91,0.00,CLR,,0.00,0.0,WeatherDisplay:10.37,2013-02-20 14:01:00,
2013-02-20 06:06:00,35.1,33.0,30.11,SSW,202,0.0,0.0,92,0.00,CLR,,0.00,0.0,WeatherDisplay:10.37,2013-02-20 14:06:00,
2013-02-20 06:11:00,35.1,33.0,30.11,SSW,202,0.0,0.0,92,0.00,CLR,,0.00,0.0,WeatherDisplay:10.37,2013-02-20 14:11:00,
2013-02-20 06:16:00,35.1,33.0,30.11,SSW,202,0.0,0.0,92,0.00,CLR,,0.00,0.0,WeatherDisplay:10.37,2013-02-20 14:16:00,
2013-02-20 06:21:00,35.2,33.1,30.11,SSW,202,0.0,0.0,92,0.00,CLR,,0.00,0.0,WeatherDisplay:10.37,2013-02-20 14:21:00,
2013-02-20 06:26:00,35.4,33.3,30.11,SSW,202,0.0,0.0,92,0.00,CLR,,0.00,0.0,WeatherDisplay:10.37,2013-02-20 14:26:00,
2013-02-20 06:31:00,35.6,33.5,30.14,WSW,248,0.0,0.0,92,0.00,CLR,,0.00,0.0,WeatherDisplay:10.37,2013-02-20 14:31:00,
2013-02-20 06:36:00,35.6,33.5,30.14,WSW,248,0.0,0.0,92,0.00,CLR,,0.00,0.0,WeatherDisplay:10.37,2013-02-20 14:36:00,
2013-02-20 06:41:00,35.8,34.0,30.14,WSW,248,0.0,0.0,93,0.00,CLR,,0.00,0.0,WeatherDisplay:10.37,2013-02-20 14:41:00,
2013-02-20 06:46:00,35.6,33.8,30.14,WSW,248,0.0,0.0,93,0.00,CLR,,0.00,0.0,WeatherDisplay:10.37,2013-02-20 14:46:00,
2013-02-20 06:51:00,35.6,33.8,30.14,WSW,248,0.0,0.0,93,0.00,CLR,,0.00,0.0,WeatherDisplay:10.37,2013-02-20 14:51:00,
2013-02-20 06:56:00,35.2,33.4,30.14,WSW,248,0.0,0.0,93,0.00,CLR,,0.00,0.0,WeatherDisplay:10.37,2013-02-20 14:56:00,
2013-02-20 07:01:00,35.2,33.4,30.14,WSW,248,0.0,0.0,93,0.00,CLR,,0.00,0.0,WeatherDisplay:10.37,2013-02-20 15:01:00,
2013-02-20 07:06:00,35.1,33.2,30.14,WSW,248,0.0,0.0,93,0.00,CLR,,0.00,0.0,WeatherDisplay:10.37,2013-02-20 15:06:00,
2013-02-20 07:11:00,34.7,32.6,30.14,WSW,248,0.0,0.0,92,0.00,CLR,,0.00,0.0,WeatherDisplay:10.37,2013-02-20 15:11:00,
2013-02-20 07:16:00,34.5,32.4,30.14,WSW,248,0.0,0.0,92,0.00,CLR,,0.00,0.0,WeatherDisplay:10.37,2013-02-20 15:16:00,
2013-02-20 07:21:00,34.7,32.9,30.14,WSW,248,0.0,0.0,93,0.00,CLR,,0.00,0.0,WeatherDisplay:10.37,2013-02-20 15:21:00,
2013-02-20 07:26:00,34.7,32.9,30.14,WSW,248,0.0,0.0,93,0.00,CLR,,0.00,0.0,WeatherDisplay:10.37,2013-02-20 15:26:00,
2013-02-20 07:31:00,34.9,33.1,30.14,WSW,248,0.0,0.0,93,0.00,CLR,,0.00,0.0,WeatherDisplay:10.37,2013-02-20 15:31:00,
2013-02-20 07:36:00,35.1,33.5,30.14,WSW,248,0.0,0.0,94,0.00,CLR,,0.00,0.0,WeatherDisplay:10.37,2013-02-20 15:36:00,
2013-02-20 07:41:00,35.4,33.9,30.14,WSW,248,0.0,0.0,94,0.00,CLR,,0.00,0.0,WeatherDisplay:10.37,2013-02-20 15:41:00,
2013-02-20 07:46:00,35.8,34.2,30.14,WSW,248,0.0,0.0,94,0.00,CLR,,0.00,0.0,WeatherDisplay:10.37,2013-02-20 15:46:00,
2013-02-20 07:51:00,36.5,35.2,30.14,WSW,248,0.0,0.0,95,0.00,CLR,,0.00,0.0,WeatherDisplay:10.37,2013-02-20 15:51:00,
2013-02-20 07:56:00,37.0,35.7,30.14,WSW,248,0.0,0.0,95,0.00,CLR,,0.00,0.0,WeatherDisplay:10.37,2013-02-20 15:56:00,
2013-02-20 08:01:00,37.6,36.0,30.14,SSW,202,0.0,0.0,94,0.00,CLR,,0.00,0.0,WeatherDisplay:10.37,2013-02-20 16:01:00,
2013-02-20 08:06:00,37.8,36.2,30.14,SSW,202,0.0,0.0,94,0.00,CLR,,0.00,0.0,WeatherDisplay:10.37,2013-02-20 16:06:00,
2013-02-20 08:11:00,37.9,36.1,30.14,SSW,202,0.0,0.0,93,0.00,CLR,,0.00,0.0,WeatherDisplay:10.37,2013-02-20 16:11:00,
2013-02-20 08:16:00,38.1,36.3,30.14,SSE,158,0.0,0.0,93,0.00,CLR,,0.00,0.0,WeatherDisplay:10.37,2013-02-20 16:16:00,
2013-02-20 08:21:00,38.5,36.6,30.14,SSE,158,0.0,0.0,93,0.00,CLR,,0.00,0.0,WeatherDisplay:10.37,2013-02-20 16:21:00,
2013-02-20 08:26:00,38.7,36.5,30.14,SSW,202,0.0,0.0,92,0.00,CLR,,0.00,0.0,WeatherDisplay:10.37,2013-02-20 16:26:00,
2013-02-20 08:31:00,38.8,36.7,30.14,SSE,158,0.0,1.6,92,0.00,CLR,,0.00,0.0,WeatherDisplay:10.37,2013-02-20 16:31:00,
2013-02-20 08:36:00,39.0,36.6,30.14,SSE,158,0.0,0.0,91,0.00,CLR,,0.00,0.0,WeatherDisplay:10.37,2013-02-20 16:36:00,
2013-02-20 08:41:00,39.2,36.5,30.14,SSW,202,0.9,1.1,90,0.00,CLR,,0.00,0.0,WeatherDisplay:10.37,2013-02-20 16:41:00,
2013-02-20 08:46:00,39.7,37.0,30.14,SSW,202,0.9,2.0,90,0.00,CLR,,0.00,0.0,WeatherDisplay:10.37,2013-02-20 16:46:00,
2013-02-20 08:51:00,39.9,36.9,30.14,SSE,158,1.6,2.3,89,0.00,CLR,,0.00,0.0,WeatherDisplay:10.37,2013-02-20 16:51:00,
2013-02-20 08:56:00,40.3,37.0,30.14,SSW,202,0.9,2.3,88,0.00,CLR,,0.00,0.0,WeatherDisplay:10.37,2013-02-20 16:56:00,
2013-02-20 09:01:00,40.6,37.4,30.11,SSE,158,0.9,2.3,88,0.00,CLR,,0.00,0.0,WeatherDisplay:10.37,2013-02-20 17:01:00,
2013-02-20 09:06:00,41.2,37.6,30.11,SSE,158,1.4,2.3,87,0.00,CLR,,0.00,0.0,WeatherDisplay:10.37,2013-02-20 17:06:00,
2013-02-20 09:11:00,41.7,37.5,30.11,ESE,112,1.6,2.4,85,0.00,CLR,,0.00,0.0,WeatherDisplay:10.37,2013-02-20 17:11:00,
2013-02-20 09:16:00,42.8,38.0,30.14,SSE,158,2.9,3.5,83,0.00,CLR,,0.00,0.0,WeatherDisplay:10.37,2013-02-20 17:16:00,
2013-02-20 09:21:00,43.3,37.3,30.14,East,90,2.9,3.5,79,0.00,CLR,,0.00,0.0,WeatherDisplay:10.37,2013-02-20 17:21:00,
2013-02-20 09:26:00,43.5,36.8,30.14,South,180,2.4,2.6,77,0.00,CLR,,0.00,0.0,WeatherDisplay:10.37,2013-02-20 17:26:00,
2013-02-20 09:31:00,43.9,37.1,30.14,SE,135,2.4,2.6,77,0.00,CLR,,0.00,0.0,WeatherDisplay:10.37,2013-02-20 17:31:00,
2013-02-20 09:36:00,44.2,36.8,30.14,SSE,158,3.3,3.3,75,0.00,CLR,,0.00,0.0,WeatherDisplay:10.37,2013-02-20 17:36:00,
2013-02-20 09:41:00,44.4,37.0,30.14,South,180,2.4,3.6,75,0.00,CLR,,0.00,0.0,WeatherDisplay:10.37,2013-02-20 17:41:00,
2013-02-20 09:46:00,44.6,36.8,30.14,South,180,2.2,2.9,74,0.00,CLR,,0.00,0.0,WeatherDisplay:10.37,2013-02-20 17:46:00,
2013-02-20 09:51:00,44.6,36.5,30.14,South,180,2.4,3.5,73,0.00,CLR,,0.00,0.0,WeatherDisplay:10.37,2013-02-20 17:51:00,
2013-02-20 09:56:00,44.8,36.7,30.14,SSW,202,3.1,3.8,73,0.00,CLR,,0.00,0.0,WeatherDisplay:10.37,2013-02-20 17:56:00,
2013-02-20 10:01:00,44.8,36.3,30.11,SSW,202,2.9,3.8,72,0.00,CLR,,0.00,0.0,WeatherDisplay:10.37,2013-02-20 18:01:00,
2013-02-20 10:06:00,45.0,36.5,30.11,SSE,158,2.6,3.8,72,0.00,CLR,,0.00,0.0,WeatherDisplay:10.37,2013-02-20 18:06:00,
2013-02-20 10:11:00,45.1,36.6,30.11,WSW,248,1.1,2.3,72,0.00,CLR,,0.00,0.0,WeatherDisplay:10.37,2013-02-20 18:11:00,
2013-02-20 10:16:00,46.0,37.2,30.14,SSW,202,2.6,4.6,71,0.00,CLR,,0.00,0.0,WeatherDisplay:10.37,2013-02-20 18:16:00,
2013-02-20 10:21:00,47.3,38.4,30.14,SSW,202,1.4,3.1,71,0.00,CLR,,0.00,0.0,WeatherDisplay:10.37,2013-02-20 18:21:00,
2013-02-20 10:26:00,47.7,36.9,30.14,SSW,202,3.1,3.8,66,0.00,CLR,,0.00,0.0,WeatherDisplay:10.37,2013-02-20 18:26:00,
2013-02-20 10:31:00,48.0,36.8,30.14,SSW,202,3.3,3.6,65,0.00,CLR,,0.00,0.0,WeatherDisplay:10.37,2013-02-20 18:31:00,
2013-02-20 10:36:00,48.0,36.4,30.14,South,180,3.1,3.5,64,0.00,CLR,,0.00,0.0,WeatherDisplay:10.37,2013-02-20 18:36:00,
2013-02-20 10:41:00,48.4,35.5,30.14,South,180,4.0,4.7,61,0.00,CLR,,0.00,0.0,WeatherDisplay:10.37,2013-02-20 18:41:00,
2013-02-20 10:46:00,48.9,36.1,30.11,SSE,158,2.0,4.7,61,0.00,CLR,,0.00,0.0,WeatherDisplay:10.37,2013-02-20 18:46:00,
2013-02-20 10:51:00,49.6,35.9,30.11,South,180,3.3,5.8,59,0.00,CLR,,0.00,0.0,WeatherDisplay:10.37,2013-02-20 18:51:00,
2013-02-20 10:56:00,50.9,35.7,30.11,South,180,3.8,5.4,56,0.00,CLR,,0.00,0.0,WeatherDisplay:10.37,2013-02-20 18:56:00,
2013-02-20 11:01:00,50.9,35.3,30.14,South,180,4.7,8.1,55,0.00,CLR,,0.00,0.0,WeatherDisplay:10.37,2013-02-20 19:01:00,
2013-02-20 11:06:00,50.9,35.3,30.14,SSW,202,4.9,5.9,55,0.00,CLR,,0.00,0.0,WeatherDisplay:10.37,2013-02-20 19:06:00,
2013-02-20 11:11:00,51.1,35.0,30.14,SSE,158,4.3,8.5,54,0.00,CLR,,0.00,0.0,WeatherDisplay:10.37,2013-02-20 19:11:00,
2013-02-20 11:16:00,50.4,33.9,30.14,SSW,202,5.4,10.4,53,0.00,CLR,,0.00,0.0,WeatherDisplay:10.37,2013-02-20 19:16:00,
2013-02-20 11:21:00,50.5,34.0,30.14,SSW,202,6.4,8.1,53,0.00,CLR,,0.00,0.0,WeatherDisplay:10.37,2013-02-20 19:21:00,
2013-02-20 11:26:00,50.7,34.2,30.14,SSE,158,5.6,6.0,53,0.00,CLR,,0.00,0.0,WeatherDisplay:10.37,2013-02-20 19:26:00,
2013-02-20 11:31:00,51.1,34.5,30.14,South,180,4.3,8.5,53,0.00,CLR,,0.00,0.0,WeatherDisplay:10.37,2013-02-20 19:31:00,
2013-02-20 11:36:00,50.9,33.4,30.14,SSW,202,3.3,9.2,51,0.00,CLR,,0.00,0.0,WeatherDisplay:10.37,2013-02-20 19:36:00,
2013-02-20 11:41:00,50.7,33.2,30.14,SSW,202,4.7,7.4,51,0.00,CLR,,0.00,0.0,WeatherDisplay:10.37,2013-02-20 19:41:00,
2013-02-20 11:46:00,51.1,34.1,30.14,SSW,202,2.2,4.6,52,0.00,CLR,,0.00,0.0,WeatherDisplay:10.37,2013-02-20 19:46:00,
2013-02-20 11:51:00,50.9,33.9,30.14,SSE,158,3.1,4.6,52,0.00,CLR,,0.00,0.0,WeatherDisplay:10.37,2013-02-20 19:51:00,
2013-02-20 11:56:00,50.7,33.7,30.14,SSW,202,4.0,6.2,52,0.00,CLR,,0.00,0.0,WeatherDisplay:10.37,2013-02-20 19:56:00,
2013-02-20 12:01:00,50.5,33.1,30.11,SSE,158,6.0,6.0,51,0.00,CLR,,0.00,0.0,WeatherDisplay:10.37,2013-02-20 20:01:00,
2013-02-20 12:06:00,50.4,33.4,30.11,SSW,202,3.6,3.6,52,0.00,CLR,,0.00,0.0,WeatherDisplay:10.37,2013-02-20 20:06:00,
2013-02-20 12:11:00,50.4,32.9,30.11,South,180,4.0,6.2,51,0.00,CLR,,0.00,0.0,WeatherDisplay:10.37,2013-02-20 20:11:00,
2013-02-20 12:16:00,50.5,33.6,30.11,South,180,3.1,4.9,52,0.00,CLR,,0.00,0.0,WeatherDisplay:10.37,2013-02-20 20:16:00,
2013-02-20 12:21:00,50.7,33.2,30.11,South,180,3.3,6.2,51,0.00,CLR,,0.00,0.0,WeatherDisplay:10.37,2013-02-20 20:21:00,
2013-02-20 12:26:00,50.9,32.9,30.11,South,180,5.9,5.9,50,0.00,CLR,,0.00,0.0,WeatherDisplay:10.37,2013-02-20 20:26:00,
2013-02-20 12:31:00,51.1,33.1,30.08,SSW,202,2.0,3.5,50,0.00,CLR,,0.00,0.0,WeatherDisplay:10.37,2013-02-20 20:31:00,
2013-02-20 12:36:00,51.3,32.2,30.08,SSE,158,4.0,5.8,48,0.00,CLR,,0.00,0.0,WeatherDisplay:10.37,2013-02-20 20:36:00,
2013-02-20 12:41:00,51.3,32.2,30.08,SSW,202,5.4,5.8,48,0.00,CLR,,0.00,0.0,WeatherDisplay:10.37,2013-02-20 20:41:00,
2013-02-20 12:46:00,50.9,31.9,30.08,SSE,158,4.0,6.9,48,0.00,CLR,,0.00,0.0,WeatherDisplay:10.37,2013-02-20 20:46:00,
2013-02-20 12:51:00,50.9,31.9,30.08,SSE,158,3.8,5.8,48,0.00,CLR,,0.00,0.0,WeatherDisplay:10.37,2013-02-20 20:51:00,
2013-02-20 12:56:00,51.1,33.1,30.08,SSE,158,3.6,3.6,50,0.00,CLR,,0.00,0.0,WeatherDisplay:10.37,2013-02-20 20:56:00,
2013-02-20 13:01:00,51.1,33.1,30.08,SE,135,3.1,3.5,50,0.00,CLR,,0.00,0.0,WeatherDisplay:10.37,2013-02-20 21:01:00,
2013-02-20 13:06:00,50.7,33.2,30.08,SSW,202,3.1,4.7,51,0.00,CLR,,0.00,0.0,WeatherDisplay:10.37,2013-02-20 21:06:00,
2013-02-20 13:11:00,50.4,32.9,30.08,SSE,158,4.0,5.8,51,0.00,CLR,,0.00,0.0,WeatherDisplay:10.37,2013-02-20 21:11:00,
2013-02-20 13:16:00,49.8,33.4,30.08,SSE,158,3.1,4.3,53,0.00,CLR,,0.00,0.0,WeatherDisplay:10.37,2013-02-20 21:16:00,
2013-02-20 13:21:00,49.6,33.2,30.08,SSW,202,2.2,3.5,53,0.00,CLR,,0.00,0.0,WeatherDisplay:10.37,2013-02-20 21:21:00,
2013-02-20 13:26:00,49.5,32.1,30.08,West,270,3.8,3.8,51,0.00,CLR,,0.00,0.0,WeatherDisplay:10.37,2013-02-20 21:26:00,
2013-02-20 13:31:00,49.3,31.9,30.08,SSW,202,3.8,5.8,51,0.00,CLR,,0.00,0.0,WeatherDisplay:10.37,2013-02-20 21:31:00,
2013-02-20 13:36:00,49.1,32.7,30.08,SE,135,2.6,5.4,53,0.00,CLR,,0.00,0.0,WeatherDisplay:10.37,2013-02-20 21:36:00,
2013-02-20 13:41:00,48.9,32.0,30.08,South,180,5.9,7.4,52,0.00,CLR,,0.00,0.0,WeatherDisplay:10.37,2013-02-20 21:41:00,
2013-02-20 13:46:00,48.9,32.5,30.08,SSW,202,4.5,5.8,53,0.00,CLR,,0.00,0.0,WeatherDisplay:10.37,2013-02-20 21:46:00,
2013-02-20 13:51:00,48.9,33.0,30.08,SSE,158,4.3,4.6,54,0.00,CLR,,0.00,0.0,WeatherDisplay:10.37,2013-02-20 21:51:00,
2013-02-20 13:56:00,49.3,33.3,30.08,SW,225,2.0,3.5,54,0.00,CLR,,0.00,0.0,WeatherDisplay:10.37,2013-02-20 21:56:00,
2013-02-20 14:01:00,49.5,33.0,30.08,SSW,202,4.0,4.6,53,0.00,CLR,,0.00,0.0,WeatherDisplay:10.37,2013-02-20 22:01:00,
2013-02-20 14:06:00,49.6,33.2,30.08,SSE,158,3.3,4.7,53,0.00,CLR,,0.00,0.0,WeatherDisplay:10.37,2013-02-20 22:06:00,
2013-02-20 14:11:00,49.6,33.2,30.08,SSW,202,4.3,4.9,53,0.00,CLR,,0.00,0.0,WeatherDisplay:10.37,2013-02-20 22:11:00,
2013-02-20 14:16:00,49.5,32.6,30.08,SSE,158,4.3,5.9,52,0.00,CLR,,0.00,0.0,WeatherDisplay:10.37,2013-02-20 22:16:00,
2013-02-20 14:21:00,49.3,32.9,30.08,South,180,4.3,5.8,53,0.00,CLR,,0.00,0.0,WeatherDisplay:10.37,2013-02-20 22:21:00,
2013-02-20 14:26:00,49.3,33.3,30.08,SSE,158,4.0,8.5,54,0.00,CLR,,0.00,0.0,WeatherDisplay:10.37,2013-02-20 22:26:00,
2013-02-20 14:31:00,49.3,33.3,30.08,SSE,158,3.8,3.8,54,0.00,CLR,,0.00,0.0,WeatherDisplay:10.37,2013-02-20 22:31:00,
2013-02-20 14:36:00,49.3,33.8,30.08,SE,135,4.5,5.8,55,0.00,CLR,,0.00,0.0,WeatherDisplay:10.37,2013-02-20 22:36:00,
2013-02-20 14:41:00,48.9,33.9,30.08,SSW,202,4.5,4.6,56,0.00,CLR,,0.00,0.0,WeatherDisplay:10.37,2013-02-20 22:41:00,
2013-02-20 14:46:00,48.7,34.6,30.05,South,180,2.9,2.9,58,0.00,CLR,,0.00,0.0,WeatherDisplay:10.37,2013-02-20 22:46:00,
2013-02-20 14:51:00,48.0,35.2,30.05,SSW,202,3.1,6.0,61,0.00,CLR,,0.00,0.0,WeatherDisplay:10.37,2013-02-20 22:51:00,
2013-02-20 14:56:00,47.5,35.9,30.05,South,180,3.1,4.6,64,0.00,CLR,,0.00,0.0,WeatherDisplay:10.37,2013-02-20 22:56:00,
2013-02-20 15:01:00,47.3,36.1,30.05,SSW,202,2.2,3.8,65,0.00,CLR,,0.00,0.0,WeatherDisplay:10.37,2013-02-20 23:01:00,
2013-02-20 15:06:00,47.3,36.5,30.05,South,180,2.4,3.1,66,0.00,CLR,,0.00,0.0,WeatherDisplay:10.37,2013-02-20 23:06:00,
2013-02-20 15:11:00,46.9,36.5,30.05,SSE,158,3.3,3.8,67,0.00,CLR,,0.00,0.0,WeatherDisplay:10.37,2013-02-20 23:11:00,
2013-02-20 15:17:00,46.8,36.4,30.05,South,180,3.1,3.5,67,0.00,CLR,,0.00,0.0,WeatherDisplay:10.37,2013-02-20 23:17:00,
2013-02-20 15:22:00,46.4,36.8,30.05,SSW,202,3.3,5.8,69,0.00,CLR,,0.00,0.0,WeatherDisplay:10.37,2013-02-20 23:22:00,
2013-02-20 15:27:00,45.9,37.3,30.05,SSW,202,1.1,3.5,72,0.00,CLR,,0.00,0.0,WeatherDisplay:10.37,2013-02-20 23:27:00,
2013-02-20 15:32:00,45.3,36.5,30.08,SE,135,3.6,3.8,71,0.00,CLR,,0.00,0.0,WeatherDisplay:10.37,2013-02-20 23:32:00,
2013-02-20 15:37:00,44.8,37.3,30.08,SE,135,3.6,3.8,75,0.04,RA,,0.04,0.0,WeatherDisplay:10.37,2013-02-20 23:37:00,
2013-02-20 15:42:00,44.6,37.8,30.08,SSE,158,3.6,3.8,77,0.04,RA,,0.04,0.0,WeatherDisplay:10.37,2013-02-20 23:42:00,
2013-02-20 15:47:00,44.6,38.2,30.08,SSW,202,3.3,3.5,78,0.04,,,0.04,0.0,WeatherDisplay:10.37,2013-02-20 23:47:00,
2013-02-20 15:52:00,44.2,37.8,30.08,SSW,202,4.3,4.6,78,0.04,CLR,,0.04,0.0,WeatherDisplay:10.37,2013-02-20 23:52:00,
2013-02-20 15:57:00,44.1,38.3,30.08,South,180,3.6,4.6,80,0.04,CLR,,0.04,0.0,WeatherDisplay:10.37,2013-02-20 23:57:00,
2013-02-20 16:02:00,44.1,38.3,30.05,South,180,2.4,3.5,80,0.04,CLR,,0.04,0.0,WeatherDisplay:10.37,2013-02-21 00:02:00,
2013-02-20 16:07:00,44.1,38.3,30.05,SSW,202,2.0,2.4,80,0.04,CLR,,0.04,0.0,WeatherDisplay:10.37,2013-02-21 00:07:00,
2013-02-20 16:12:00,43.9,38.1,30.05,SSE,158,2.2,3.5,80,0.04,CLR,,0.04,0.0,WeatherDisplay:10.37,2013-02-21 00:12:00,
2013-02-20 16:17:00,43.7,37.9,30.05,South,180,2.9,3.5,80,0.04,CLR,,0.04,0.0,WeatherDisplay:10.37,2013-02-21 00:17:00,
2013-02-20 16:22:00,43.9,38.4,30.05,SSE,158,3.3,3.8,81,0.04,CLR,,0.04,0.0,WeatherDisplay:10.37,2013-02-21 00:22:00,
2013-02-20 16:28:00,44.1,38.6,30.05,SSW,202,1.6,2.3,81,0.04,CLR,,0.04,0.0,WeatherDisplay:10.37,2013-02-21 00:28:00,
2013-02-20 16:33:00,44.1,38.6,30.05,SSE,158,2.2,4.6,81,0.04,CLR,,0.04,0.0,WeatherDisplay:10.37,2013-02-21 00:33:00,
2013-02-20 16:38:00,43.9,38.1,30.05,SSW,202,2.6,2.6,80,0.00,CLR,,0.04,0.0,WeatherDisplay:10.37,2013-02-21 00:38:00,
2013-02-20 16:43:00,43.7,37.9,30.05,South,180,2.6,3.5,80,0.00,CLR,,0.04,0.0,WeatherDisplay:10.37,2013-02-21 00:43:00,
2013-02-20 16:48:00,43.7,38.3,30.05,SSE,158,1.6,2.4,81,0.00,CLR,,0.04,0.0,WeatherDisplay:10.37,2013-02-21 00:48:00,
2013-02-20 16:53:00,43.5,38.4,30.05,SSE,158,2.6,2.6,82,0.00,CLR,,0.04,0.0,WeatherDisplay:10.37,2013-02-21 00:53:00,
2013-02-20 16:58:00,43.5,38.7,30.05,SSW,202,2.4,3.5,83,0.00,CLR,,0.04,0.0,WeatherDisplay:10.37,2013-02-21 00:58:00,
2013-02-20 17:03:00,43.3,38.5,30.05,SSE,158,2.9,4.9,83,0.00,CLR,,0.04,0.0,WeatherDisplay:10.37,2013-02-21 01:03:00,
2013-02-20 17:08:00,43.3,38.5,30.05,South,180,2.4,2.4,83,0.00,CLR,,0.04,0.0,WeatherDisplay:10.37,2013-02-21 01:08:00,
2013-02-20 17:13:00,43.3,38.5,30.05,SSE,158,2.2,2.4,83,0.00,CLR,,0.04,0.0,WeatherDisplay:10.37,2013-02-21 01:13:00,
2013-02-20 17:18:00,43.3,38.8,30.05,South,180,2.6,3.5,84,0.00,CLR,,0.04,0.0,WeatherDisplay:10.37,2013-02-21 01:18:00,
2013-02-20 17:23:00,43.3,38.8,30.05,SSW,202,2.6,3.8,84,0.00,CLR,,0.04,0.0,WeatherDisplay:10.37,2013-02-21 01:23:00,
2013-02-20 17:28:00,43.3,38.8,30.05,SSE,158,1.1,2.3,84,0.00,CLR,,0.04,0.0,WeatherDisplay:10.37,2013-02-21 01:28:00,
2013-02-20 17:33:00,43.3,39.1,30.05,SSW,202,4.0,5.8,85,0.00,CLR,,0.04,0.0,WeatherDisplay:10.37,2013-02-21 01:33:00,
2013-02-20 17:38:00,43.2,39.0,30.05,SSE,158,3.6,3.6,85,0.00,CLR,,0.04,0.0,WeatherDisplay:10.37,2013-02-21 01:38:00,
2013-02-20 17:43:00,43.2,39.0,30.05,SSW,202,5.6,6.0,85,0.00,CLR,,0.04,0.0,WeatherDisplay:10.37,2013-02-21 01:43:00,
2013-02-20 17:48:00,43.2,39.0,30.05,SSE,158,4.3,5.8,85,0.00,CLR,,0.04,0.0,WeatherDisplay:10.37,2013-02-21 01:48:00,
2013-02-20 17:53:00,43.0,38.5,30.05,SSW,202,4.3,4.9,84,0.00,CLR,,0.04,0.0,WeatherDisplay:10.37,2013-02-21 01:53:00,
2013-02-20 17:58:00,43.0,38.5,30.08,SSW,202,2.4,3.8,84,0.00,CLR,,0.04,0.0,WeatherDisplay:10.37,2013-02-21 01:58:00,
2013-02-20 18:03:00,43.0,38.5,30.08,SSW,202,2.9,2.9,84,0.00,CLR,,0.04,0.0,WeatherDisplay:10.37,2013-02-21 02:03:00,
2013-02-20 18:09:00,43.0,38.5,30.08,SSW,202,3.6,6.9,84,0.00,CLR,,0.04,0.0,WeatherDisplay:10.37,2013-02-21 02:09:00,
2013-02-20 18:14:00,43.0,38.5,30.08,SSW,202,2.4,2.4,84,0.00,CLR,,0.04,0.0,WeatherDisplay:10.37,2013-02-21 02:14:00,
2013-02-20 18:19:00,42.8,38.0,30.08,SSW,202,2.9,3.6,83,0.00,CLR,,0.04,0.0,WeatherDisplay:10.37,2013-02-21 02:19:00,
2013-02-20 18:24:00,42.6,38.1,30.08,SSW,202,2.9,3.6,84,0.00,CLR,,0.04,0.0,WeatherDisplay:10.37,2013-02-21 02:24:00,
2013-02-20 18:29:00,42.3,37.5,30.08,SSW,202,2.9,3.6,83,0.00,CLR,,0.04,0.0,WeatherDisplay:10.37,2013-02-21 02:29:00,
2013-02-20 18:34:00,42.1,37.0,30.08,SSW,202,3.8,6.9,82,0.00,CLR,,0.04,0.0,WeatherDisplay:10.37,2013-02-21 02:34:00,
2013-02-20 18:39:00,41.7,36.6,30.08,SSE,158,2.9,6.9,82,0.00,CLR,,0.04,0.0,WeatherDisplay:10.37,2013-02-21 02:39:00,
2013-02-20 18:44:00,41.5,36.8,30.08,SSE,158,2.9,2.9,83,0.00,CLR,,0.04,0.0,WeatherDisplay:10.37,2013-02-21 02:44:00,
2013-02-20 18:49:00,41.2,36.4,30.08,SSW,202,2.9,3.5,83,0.00,CLR,,0.04,0.0,WeatherDisplay:10.37,2013-02-21 02:49:00,
2013-02-20 18:54:00,41.0,36.2,30.08,SSW,202,2.4,2.9,83,0.00,CLR,,0.04,0.0,WeatherDisplay:10.37,2013-02-21 02:54:00,
2013-02-20 18:59:00,40.8,36.1,30.08,South,180,3.8,3.8,83,0.00,CLR,,0.04,0.0,WeatherDisplay:10.37,2013-02-21 02:59:00,
2013-02-20 19:04:00,40.6,35.9,30.08,SSE,158,0.0,2.6,83,0.00,CLR,,0.04,0.0,WeatherDisplay:10.37,2013-02-21 03:04:00,
2013-02-20 19:09:00,40.3,35.5,30.08,WSW,248,0.0,1.1,83,0.00,CLR,,0.04,0.0,WeatherDisplay:10.37,2013-02-21 03:09:00,
2013-02-20 19:14:00,39.9,35.2,30.05,SSW,202,0.0,0.0,83,0.00,CLR,,0.04,0.0,WeatherDisplay:10.37,2013-02-21 03:14:00,
2013-02-20 19:19:00,39.4,34.6,30.05,SSW,202,0.0,0.0,83,0.00,CLR,,0.04,0.0,WeatherDisplay:10.37,2013-02-21 03:19:00,
2013-02-20 19:24:00,39.4,34.6,30.05,WSW,248,0.0,0.0,83,0.00,CLR,,0.04,0.0,WeatherDisplay:10.37,2013-02-21 03:24:00,
2013-02-20 19:29:00,39.4,34.9,30.08,WSW,248,0.0,0.0,84,0.00,CLR,,0.04,0.0,WeatherDisplay:10.37,2013-02-21 03:29:00,
2013-02-20 19:34:00,39.6,35.4,30.08,WSW,248,0.0,0.0,85,0.00,CLR,,0.04,0.0,WeatherDisplay:10.37,2013-02-21 03:34:00,
2013-02-20 19:39:00,39.4,35.2,30.08,SSW,202,0.0,0.0,85,0.00,CLR,,0.04,0.0,WeatherDisplay:10.37,2013-02-21 03:39:00,
2013-02-20 19:44:00,39.2,35.4,30.08,SSE,158,0.0,0.0,86,0.00,CLR,,0.04,0.0,WeatherDisplay:10.37,2013-02-21 03:44:00,
2013-02-20 19:49:00,39.2,35.4,30.08,SSE,158,0.0,0.0,86,0.00,CLR,,0.04,0.0,WeatherDisplay:10.37,2013-02-21 03:49:00,
2013-02-20 19:55:00,38.7,34.8,30.08,SSE,158,0.0,0.0,86,0.00,CLR,,0.04,0.0,WeatherDisplay:10.37,2013-02-21 03:55:00,
2013-02-20 20:00:00,38.1,34.6,30.08,SSE,158,0.0,0.0,87,0.00,CLR,,0.04,0.0,WeatherDisplay:10.37,2013-02-21 04:00:00,
2013-02-20 20:05:00,37.9,34.4,30.08,SSE,158,0.0,0.0,87,0.00,CLR,,0.04,0.0,WeatherDisplay:10.37,2013-02-21 04:05:00,
2013-02-20 20:11:00,37.6,34.1,30.08,ENE,68,0.0,0.0,87,0.00,CLR,,0.04,0.0,WeatherDisplay:10.37,2013-02-21 04:11:00,
2013-02-20 20:16:00,37.0,33.8,30.08,ENE,68,0.0,0.0,88,0.00,CLR,,0.04,0.0,WeatherDisplay:10.37,2013-02-21 04:16:00,
2013-02-20 20:21:00,36.9,33.6,30.08,ENE,68,0.0,0.0,88,0.00,CLR,,0.04,0.0,WeatherDisplay:10.37,2013-02-21 04:21:00,
2013-02-20 20:26:00,36.5,33.3,30.08,ENE,68,0.0,0.0,88,0.00,CLR,,0.04,0.0,WeatherDisplay:10.37,2013-02-21 04:26:00,
2013-02-20 20:31:00,36.3,33.1,30.11,ENE,68,0.0,0.0,88,0.00,CLR,,0.04,0.0,WeatherDisplay:10.37,2013-02-21 04:31:00,
2013-02-20 20:36:00,36.3,33.1,30.11,ENE,68,0.0,0.0,88,0.00,CLR,,0.04,0.0,WeatherDisplay:10.37,2013-02-21 04:36:00,
2013-02-20 20:41:00,36.7,33.7,30.11,ENE,68,0.0,0.0,89,0.00,CLR,,0.04,0.0,WeatherDisplay:10.37,2013-02-21 04:41:00,
2013-02-20 20:46:00,36.7,33.7,30.11,ENE,68,0.0,0.0,89,0.00,CLR,,0.04,0.0,WeatherDisplay:10.37,2013-02-21 04:46:00,
2013-02-20 20:51:00,36.9,34.2,30.11,ENE,68,0.0,0.0,90,0.00,CLR,,0.04,0.0,WeatherDisplay:10.37,2013-02-21 04:51:00,
2013-02-20 20:56:00,37.2,35.1,30.11,ENE,68,0.0,0.0,92,0.00,CLR,,0.04,0.0,WeatherDisplay:10.37,2013-02-21 04:56:00,
2013-02-20 21:00:00,37.4,35.6,30.14,ENE,68,0.0,0.0,93,0.00,CLR,,0.04,0.0,WeatherDisplay:10.37,2013-02-21 05:00:00,
2013-02-20 21:01:00,37.4,35.6,30.14,SSW,202,0.9,1.4,93,0.00,CLR,,0.04,0.0,WeatherDisplay:10.37,2013-02-21 05:01:00,
2013-02-20 21:03:00,37.6,35.7,30.14,SSE,158,0.0,1.6,93,0.00,CLR,,0.04,0.0,WeatherDisplay:10.37,2013-02-21 05:03:00,
2013-02-20 21:08:00,37.9,36.4,30.14,SSW,202,1.4,2.4,94,0.00,CLR,,0.04,0.0,WeatherDisplay:10.37,2013-02-21 05:08:00,
2013-02-20 21:13:00,37.9,36.4,30.14,SSE,158,2.2,2.4,94,0.00,CLR,,0.04,0.0,WeatherDisplay:10.37,2013-02-21 05:13:00,
2013-02-20 21:18:00,38.1,36.8,30.14,SSW,202,0.0,1.4,95,0.00,CLR,,0.04,0.0,WeatherDisplay:10.37,2013-02-21 05:18:00,
2013-02-20 21:23:00,38.1,36.5,30.14,WSW,248,0.0,0.0,94,0.00,CLR,,0.04,0.0,WeatherDisplay:10.37,2013-02-21 05:23:00,
2013-02-20 21:28:00,38.1,36.5,30.14,SSE,158,2.0,2.0,94,0.00,CLR,,0.04,0.0,WeatherDisplay:10.37,2013-02-21 05:28:00,
2013-02-20 21:33:00,38.1,36.8,30.14,SSW,202,2.0,3.5,95,0.00,CLR,,0.04,0.0,WeatherDisplay:10.37,2013-02-21 05:33:00,
2013-02-20 21:38:00,38.1,36.8,30.14,South,180,1.4,2.3,95,0.00,CLR,,0.04,0.0,WeatherDisplay:10.37,2013-02-21 05:38:00,
2013-02-20 21:43:00,38.1,36.8,30.14,SW,225,0.9,1.1,95,0.00,CLR,,0.04,0.0,WeatherDisplay:10.37,2013-02-21 05:43:00,
2013-02-20 21:48:00,38.1,36.8,30.14,SE,135,1.1,2.4,95,0.00,CLR,,0.04,0.0,WeatherDisplay:10.37,2013-02-21 05:48:00,
2013-02-20 21:53:00,38.3,37.0,30.14,SE,135,1.1,2.4,95,0.00,CLR,,0.04,0.0,WeatherDisplay:10.37,2013-02-21 05:53:00,
2013-02-20 21:55:00,38.3,37.0,30.14,SE,135,1.1,2.4,95,0.00,CLR,,0.04,0.0,WeatherDisplay:10.37,2013-02-21 05:55:00,
2013-02-20 22:00:00,38.1,36.5,30.14,SSE,158,1.1,0.0,94,0.00,CLR,,0.04,0.0,WeatherDisplay:10.37,2013-02-21 06:00:00,
2013-02-20 22:05:00,37.9,36.4,30.14,SSE,158,1.1,0.0,94,0.00,CLR,,0.04,0.0,WeatherDisplay:10.37,2013-02-21 06:05:00,
2013-02-20 22:10:00,37.9,36.4,30.14,SSE,158,1.1,0.0,94,0.00,CLR,,0.04,0.0,WeatherDisplay:10.37,2013-02-21 06:10:00,
2013-02-20 22:15:00,37.9,36.6,30.14,SSE,158,1.1,0.0,95,0.00,CLR,,0.04,0.0,WeatherDisplay:10.37,2013-02-21 06:15:00,
2013-02-20 22:20:00,37.9,36.6,30.14,SSE,158,1.1,0.0,95,0.00,CLR,,0.04,0.0,WeatherDisplay:10.37,2013-02-21 06:20:00,
2013-02-20 22:25:00,37.9,36.6,30.14,SSE,158,1.1,0.0,95,0.00,CLR,,0.04,0.0,WeatherDisplay:10.37,2013-02-21 06:25:00,
2013-02-20 22:30:00,37.9,36.6,30.14,SSE,158,1.1,0.0,95,0.00,CLR,,0.04,0.0,WeatherDisplay:10.37,2013-02-21 06:30:00,
2013-02-20 22:35:00,38.3,37.3,30.14,SSE,158,1.1,0.0,96,0.00,CLR,,0.04,0.0,WeatherDisplay:10.37,2013-02-21 06:35:00,
2013-02-20 22:40:00,38.5,37.4,30.14,SSE,158,1.1,0.0,96,0.00,CLR,,0.04,0.0,WeatherDisplay:10.37,2013-02-21 06:40:00,
2013-02-20 22:45:00,38.7,38.7,30.14,SSE,158,1.1,0.0,100,0.00,,,0.04,0.0,WeatherDisplay:10.37,2013-02-21 06:45:00,
2013-02-20 22:51:00,38.8,38.8,30.14,SSE,158,1.1,0.0,100,0.00,,,0.04,0.0,WeatherDisplay:10.37,2013-02-21 06:51:00,
2013-02-20 22:56:00,38.8,38.8,30.14,SSE,158,1.1,0.0,100,0.00,,,0.04,0.0,WeatherDisplay:10.37,2013-02-21 06:56:00,
2013-02-20 23:01:00,39.0,39.0,30.14,SSW,202,2.6,2.6,100,0.00,,,0.04,0.0,WeatherDisplay:10.37,2013-02-21 07:01:00,
2013-02-20 23:06:00,39.0,38.0,30.14,SSW,202,2.6,2.6,96,0.00,CLR,,0.04,0.0,WeatherDisplay:10.37,2013-02-21 07:06:00,
2013-02-20 23:11:00,39.2,38.2,30.14,South,180,3.3,3.3,96,0.00,CLR,,0.04,0.0,WeatherDisplay:10.37,2013-02-21 07:11:00,
2013-02-20 23:16:00,39.2,37.9,30.14,South,180,3.3,3.3,95,0.00,CLR,,0.04,0.0,WeatherDisplay:10.37,2013-02-21 07:16:00,
2013-02-20 23:21:00,39.2,37.9,30.14,SSW,202,3.1,3.6,95,0.00,CLR,,0.04,0.0,WeatherDisplay:10.37,2013-02-21 07:21:00,
2013-02-20 23:26:00,39.2,37.6,30.14,SSW,202,1.6,3.8,94,0.00,CLR,,0.04,0.0,WeatherDisplay:10.37,2013-02-21 07:26:00,
2013-02-20 23:31:00,39.2,37.6,30.14,SSW,202,1.4,2.9,94,0.00,CLR,,0.04,0.0,WeatherDisplay:10.37,2013-02-21 07:31:00,
2013-02-20 23:36:00,39.2,37.3,30.14,SSE,158,2.0,2.0,93,0.00,CLR,,0.04,0.0,WeatherDisplay:10.37,2013-02-21 07:36:00,
2013-02-20 23:41:00,39.2,37.3,30.14,SSW,202,1.4,1.4,93,0.00,CLR,,0.04,0.0,WeatherDisplay:10.37,2013-02-21 07:41:00,
2013-02-20 23:46:00,39.2,37.3,30.14,SSW,202,1.4,2.3,93,0.00,CLR,,0.04,0.0,WeatherDisplay:10.37,2013-02-21 07:46:00,
2013-02-20 23:51:00,39.2,37.3,30.14,SSE,158,2.9,2.9,93,0.00,CLR,,0.04,0.0,WeatherDisplay:10.37,2013-02-21 07:51:00,
2013-02-20 23:56:00,39.2,37.3,30.14,SSW,202,2.6,2.6,93,0.00,CLR,,0.04,0.0,WeatherDisplay:10.37,2013-02-21 07:56:00,